Theta_e
311 315 315 314 314 311 313 311 312 310 310 312 313 313 314 313 312 314 314 314 313 313 313 313 313 313 314 317 319 320 323 324 328 328 330 331 330 330 330 330 329 329 329 329
313 313 314 308 308 309 311 311 312 312 310 312 312 314 315 313 313 312 312 312 311 311 311 312 312 312 313 314 315 317 319 321 324 324 326 328 329 329 329 330 330 330 330 330
313 311 308 309 309 310 311 312 312 313 310 309 310 313 311 308 308 307 309 308 308 309 310 311 311 311 311 312 313 314 315 318 320 322 325 326 328 327 327 326 327 327 328 331
311 306 309 310 311 312 312 310 311 312 313 313 309 312 313 310 310 311 311 311 310 311 312 312 311 311 312 312 312 312 312 313 316 320 322 322 323 322 322 323 324 325 325 326
310 308 309 311 311 310 311 310 311 311 314 313 312 312 313 308 312 312 310 310 310 311 312 312 313 314 314 313 312 311 312 312 312 313 316 319 321 322 323 324 324 325 325 325
310 307 309 310 307 309 308 311 311 311 313 313 313 312 312 311 310 311 309 311 311 311 312 312 312 313 314 314 314 313 312 312 312 312 312 314 316 319 321 322 323 324 324 324
311 310 310 309 310 309 310 313 313 313 314 313 307 310 313 308 308 309 310 311 311 311 311 312 312 313 313 314 314 314 313 312 312 312 313 314 315 317 319 320 321 322 322 320
312 312 311 310 312 312 313 312 314 314 312 312 307 312 313 307 306 306 309 310 310 311 311 312 312 312 312 313 313 313 313 313 314 314 315 315 316 316 316 315 314 314 313 313
311 310 309 308 309 311 310 310 308 309 302 313 311 311 310 309 309 309 310 310 310 309 310 311 312 312 313 313 313 313 313 313 312 312 312 312 312 312 312 312 312 312 312 312
310 311 309 309 309 308 310 308 312 310 317 315 309 309 313 312 311 311 310 310 309 309 310 311 311 312 313 313 313 313 313 313 313 313 313 312 312 312 312 312 312 312 312 312
309 314 310 309 311 312 308 309 308 310 311 317 313 311 309 313 313 312 311 310 309 309 310 311 312 312 312 312 312 312 312 312 312 312 312 311 311 310 309 309 309 308 308 308
309 311 313 312 308 307 307 310 310 313 311 307 310 313 306 311 312 312 310 308 308 310 311 311 312 312 311 311 311 311 311 311 311 311 311 310 310 309 308 308 306 305 304 304
310 313 314 312 311 308 310 309 309 309 310 311 317 313 306 308 309 309 309 308 309 310 310 311 310 311 311 311 310 310 310 309 309 307 307 306 306 306 305 304 304 303 303 304
309 309 313 313 312 312 311 309 307 310 312 311 311 311 309 309 310 309 308 308 308 309 310 310 310 309 309 308 308 307 306 304 304 303 303 303 303 303 303 303 304 303 303 302
310 313 309 310 309 311 311 310 308 310 311 311 312 310 312 311 311 310 309 308 308 309 308 308 307 307 306 305 304 303 302 302 302 303 303 303 303 302 301 300 300 299 299 299
308 312 311 312 310 310 310 311 310 310 311 310 309 310 310 311 310 309 308 308 307 307 307 306 305 304 303 302 302 302 302 302 302 301 301 300 299 299 298 298 297 297 297 297
311 311 312 314 311 312 314 311 311 311 311 310 310 310 308 309 308 309 309 308 307 307 306 305 303 302 302 301 301 300 300 300 299 299 298 298 298 297 297 296 296 296 295 295
311 311 313 313 311 314 312 309 310 310 310 309 310 310 309 309 309 309 309 309 309 307 305 302 301 301 300 300 299 299 298 298 298 297 297 296 296 295 295 294 294 294 294 294
311 312 312 316 315 314 313 306 309 309 311 309 310 309 308 307 306 306 308 309 309 306 303 302 301 300 298 298 297 297 297 296 296 295 295 295 294 294 293 293 293 293 293 293
311 312 314 314 318 317 314 306 308 310 313 310 309 308 305 306 310 309 307 307 305 303 302 300 298 297 297 297 297 296 296 296 295 294 294 293 293 293 292 292 292 292 292 292
313 313 315 315 318 315 306 302 307 315 316 308 309 308 305 309 309 306 304 303 302 300 299 297 297 296 296 296 295 295 294 294 293 293 293 292 292 291 291 291 291 291 290 290
314 315 315 313 316 317 300 302 311 307 300 305 307 306 304 306 305 304 301 299 298 297 297 296 296 295 294 294 293 293 293 292 292 291 290 290 290 289 289 289 290 290 289 289
312 311 311 312 314 300 300 301 304 302 304 305 307 306 307 304 302 300 298 297 296 296 295 294 293 293 293 293 292 291 290 290 289 289 288 289 289 289 288 288 288 288 289 289
299 296 308 307 302 299 299 300 301 303 304 306 307 307 305 303 300 298 296 295 295 294 294 293 293 292 292 291 290 289 288 288 288 289 289 288 288 288 289 289 288 288 289 289
300 298 299 299 294 297 299 300 302 302 303 303 304 304 303 302 298 297 295 295 294 294 293 292 291 290 289 289 288 288 288 288 288 288 288 288 288 288 288 288 288 288 289 288
295 299 303 307 299 303 302 301 301 302 302 302 302 300 299 299 297 295 294 293 293 292 291 290 289 289 288 288 288 288 288 288 288 287 287 287 287 287 287 287 288 288 288 288
Wind_Speed
4 9 14 16 11 4 10 7 7 2 1 3 7 11 11 9 9 12 11 12 10 13 13 14 17 19 23 27 28 29 29 29 30 30 30 30 30 29 27 25 22 20 19 21
7 13 8 11 7 8 9 9 5 3 2 2 2 11 11 9 7 9 10 10 10 12 12 15 18 21 23 24 28 30 30 29 30 30 30 31 30 29 28 28 26 25 23 23
14 3 14 8 8 10 3 9 6 4 4 2 3 7 4 2 0 2 4 7 6 6 5 7 11 16 19 26 31 28 28 29 29 29 28 29 31 29 27 26 24 24 23 23
4 4 12 12 7 7 5 4 8 11 7 3 2 3 3 2 3 3 2 3 3 3 2 2 3 7 9 13 23 28 26 26 27 28 29 28 27 26 24 24 22 21 19 19
6 11 11 8 8 6 3 6 7 4 4 2 3 4 3 1 5 6 4 3 5 6 8 8 8 6 5 4 8 16 19 21 22 22 24 25 25 24 22 22 21 21 22 21
3 2 2 3 6 1 14 10 7 4 2 3 2 3 4 4 4 5 4 4 6 8 10 11 11 10 10 9 7 8 11 15 16 15 16 18 19 20 21 20 20 21 22 21
3 2 1 5 11 5 3 14 4 3 4 4 2 3 6 3 3 1 2 5 9 12 13 15 16 15 15 14 13 12 10 9 8 9 10 12 13 13 13 14 15 16 17 18
9 6 10 6 5 10 15 7 6 7 5 4 1 7 3 1 2 4 6 10 13 18 20 22 24 24 24 23 22 21 19 18 15 12 10 6 4 2 3 4 6 8 10 11
10 4 2 1 2 5 7 6 4 7 1 2 4 4 8 2 5 8 12 14 16 19 21 24 24 25 24 23 22 21 20 19 17 15 12 9 6 4 2 3 5 7 10 11
7 6 2 2 2 4 4 11 3 1 5 5 4 5 5 8 11 11 15 18 15 18 21 22 22 21 21 19 17 14 13 13 12 10 8 7 5 4 4 5 7 9 10 12
6 3 2 2 6 11 4 5 2 3 2 5 4 5 3 12 15 17 19 18 18 18 21 22 21 18 16 15 13 12 11 10 9 8 7 6 5 6 7 8 9 11 12 13
2 5 5 8 1 2 2 5 9 6 6 0 1 3 1 8 19 23 20 17 17 20 21 20 19 17 15 13 12 10 9 8 8 8 6 6 6 6 7 9 11 12 14 16
8 4 5 2 2 1 6 4 5 3 3 7 6 4 2 10 18 19 19 16 20 20 20 19 17 15 13 11 10 8 8 8 7 6 6 7 7 8 10 12 14 17 19 22
13 2 6 12 13 8 9 10 9 11 5 6 8 6 9 12 16 20 20 20 19 20 20 19 17 14 12 10 9 8 8 7 6 7 8 9 10 12 15 18 21 24 26 28
6 10 6 3 2 7 8 13 16 16 21 12 18 14 19 21 21 28 23 21 22 23 21 18 16 13 11 10 9 7 6 6 6 7 9 11 13 15 18 20 21 23 25 27
2 5 9 4 3 3 4 12 20 23 21 15 7 13 8 28 20 20 23 26 25 24 22 19 16 14 12 10 7 4 3 5 7 9 11 14 16 18 21 23 26 28 28 30
9 7 5 7 5 5 4 20 20 17 17 19 15 15 9 16 23 28 27 28 26 25 23 19 16 14 11 8 5 2 3 5 8 11 14 17 20 22 26 28 29 30 32 33
10 7 2 4 3 7 7 2 18 21 15 18 13 10 20 28 40 27 25 30 28 26 23 20 17 13 9 6 2 2 6 9 12 15 19 21 24 26 28 29 30 32 34 35
4 9 4 6 9 4 5 6 9 13 17 16 21 10 13 16 19 16 26 27 28 25 23 19 15 11 8 5 0 4 9 13 16 19 22 24 28 29 30 32 33 34 37 38
1 6 7 4 8 13 9 7 13 7 14 15 21 16 18 24 11 8 29 26 25 23 20 17 13 9 4 2 5 9 14 17 20 23 24 26 27 30 32 34 36 37 39 42
6 3 12 8 5 7 5 6 14 11 7 18 33 30 31 13 9 22 30 27 24 22 19 15 10 6 4 7 10 14 17 20 22 24 25 26 28 31 34 37 38 40 42 44
12 11 7 3 8 15 12 9 10 2 6 14 20 23 24 17 21 34 32 29 25 21 17 13 8 7 9 11 13 15 18 22 23 26 27 29 31 33 35 37 38 39 40 42
5 4 7 8 4 1 18 2 13 11 17 15 24 28 30 25 31 35 32 27 21 16 12 9 7 8 11 12 15 17 20 23 26 28 29 30 32 33 35 37 40 43 44 44
2 2 3 3 2 0 13 7 11 14 17 19 21 28 28 31 33 32 28 23 18 13 10 9 9 9 11 13 15 19 22 24 26 28 29 31 33 34 34 36 38 41 43 44
0 9 6 2 1 2 10 14 17 19 20 21 24 27 28 30 30 27 22 18 14 11 9 10 11 12 13 15 17 19 22 25 28 31 34 35 37 38 39 39 40 41 42 42
8 6 5 4 18 8 16 26 22 21 24 23 25 27 25 24 26 23 19 14 11 10 11 11 11 12 15 17 18 20 24 28 32 36 38 40 41 43 43 44 45 43 44 43
Wind_Direction
151 185 190 179 193 149 158 139 159 131 71 224 233 267 262 264 271 255 256 265 262 261 259 252 244 239 235 235 234 232 232 232 234 237 238 242 246 250 253 256 260 259 257 256
159 204 175 117 116 126 145 150 145 102 69 232 275 267 264 266 250 271 277 270 275 271 267 252 244 238 235 234 235 234 234 234 236 240 242 245 250 254 258 262 263 264 263 260
181 154 147 141 142 134 135 172 167 147 139 81 296 268 240 106 208 298 292 271 259 256 258 250 237 235 237 236 232 231 233 235 237 238 242 244 248 254 257 259 263 265 269 267
151 139 162 149 167 173 172 158 134 135 157 210 348 259 266 146 134 106 78 74 84 95 76 114 171 208 233 239 230 228 231 233 236 237 240 246 251 255 262 267 272 278 281 277
157 166 156 172 178 177 147 128 119 124 110 168 189 262 239 158 167 140 110 92 98 105 106 107 109 117 125 162 206 223 228 229 233 235 237 242 250 255 260 264 272 277 280 280
94 102 159 133 74 56 142 109 73 72 87 238 154 246 234 185 171 153 121 108 110 117 112 106 101 100 103 106 128 172 200 212 218 224 227 234 242 249 254 260 265 269 272 274
115 120 95 139 96 136 187 155 135 179 190 233 27 211 267 157 125 114 138 114 121 123 116 110 108 105 102 101 102 109 123 153 175 197 211 219 226 233 241 249 258 266 272 276
161 193 182 169 173 174 182 194 167 179 189 164 101 220 243 110 344 182 135 133 126 121 119 115 110 105 101 98 96 96 98 100 103 107 111 117 133 168 236 261 272 278 279 282
169 156 62 52 142 174 176 200 98 105 59 170 204 250 261 119 139 151 142 138 132 125 122 117 114 111 106 103 99 96 95 94 94 93 92 93 88 79 35 328 308 299 295 294
186 129 21 91 128 46 216 141 128 88 152 211 204 270 223 181 171 161 153 147 139 130 126 123 120 117 113 107 102 100 96 96 92 88 83 74 55 33 4 343 328 318 312 309
145 90 115 150 216 177 142 180 118 128 197 187 175 232 216 187 169 164 157 150 145 139 134 128 123 119 115 113 109 103 96 88 87 81 72 59 39 17 3 349 341 335 328 324
175 110 141 187 3 319 338 190 181 192 190 186 19 240 117 184 164 161 156 152 149 143 137 133 131 130 129 124 117 108 100 95 84 72 62 44 27 9 352 343 340 338 337 336
183 151 109 127 229 162 222 181 208 116 95 188 174 217 45 152 158 164 161 164 157 152 145 143 140 139 134 127 115 107 99 88 79 61 42 24 7 354 344 341 337 334 330 328
149 106 195 197 204 140 196 190 196 199 199 179 230 162 172 179 176 179 177 170 169 162 157 155 151 144 133 126 122 112 99 82 60 36 15 3 355 348 341 336 331 326 322 320
160 195 196 208 168 174 207 185 182 202 221 199 232 214 186 189 186 185 176 172 171 171 167 161 154 147 143 136 125 106 83 57 29 4 352 345 343 338 332 326 323 320 319 317
167 173 172 180 168 184 195 198 195 208 217 239 236 222 200 189 181 174 178 177 176 174 170 164 160 155 147 140 128 107 62 18 359 350 343 341 336 332 328 325 323 320 319 319
158 137 144 211 128 122 290 214 198 215 215 216 214 218 163 171 188 189 184 182 177 174 171 168 165 159 153 144 126 87 19 354 346 338 334 330 327 325 323 321 318 317 316 315
168 137 98 124 133 208 254 170 196 205 207 210 229 183 179 187 197 191 191 183 179 177 172 169 166 160 157 153 136 20 345 332 328 327 325 323 322 320 318 316 315 315 314 314
213 167 147 166 210 316 238 209 181 182 229 206 215 171 173 167 163 197 193 193 187 179 173 170 170 170 164 156 163 330 322 319 319 319 320 319 318 317 316 314 315 314 312 312
172 204 182 165 197 213 246 181 166 126 254 192 195 168 161 153 181 189 188 184 176 173 173 171 169 167 176 274 314 313 307 308 310 312 314 316 316 315 315 315 314 313 310 308
186 184 206 193 210 271 178 147 157 171 244 175 187 176 164 176 197 174 166 168 173 170 169 168 171 193 245 285 295 300 304 307 309 310 311 311 311 311 311 310 310 309 308 305
176 176 193 164 199 246 149 125 189 155 137 172 168 165 160 162 145 160 164 162 165 167 168 176 194 237 269 282 293 302 305 306 307 308 310 311 311 310 309 307 307 306 306 306
192 188 173 206 216 111 174 151 199 172 156 161 172 179 175 154 152 157 158 161 163 170 180 197 224 255 274 288 300 304 304 305 307 310 312 313 313 312 311 309 308 307 305 305
243 225 134 141 199 146 183 184 164 164 154 151 163 167 171 159 160 159 160 161 168 179 202 233 250 265 279 291 299 304 306 306 310 312 314 314 314 314 313 311 309 307 307 307
202 152 150 287 299 114 214 192 169 167 161 155 158 164 167 164 161 162 165 174 188 207 232 254 270 282 290 299 305 306 305 307 310 310 310 310 311 311 309 306 305 305 307 307
189 165 189 207 185 182 201 187 180 174 168 167 170 166 167 169 167 173 179 189 207 225 244 259 272 288 296 300 301 302 303 306 307 307 307 307 307 306 305 303 302 301 302 304